SCOUT B DEB, 28794

Orbit data source: Space-Track

SCOUT B DEB, 28794 is space debris in LEO originally from a launch on Tue, 10 Aug 1965 UTC launched from the Wallops Island (WLPIS). Debris objects in space refer to the collection of defunct objects orbiting the Earth. Examples of debris include non-operational satellites, rocket bodies, and fragments generated from explosions, collisions, or faulty payload assembly.

Loading next visibility...
Identifier
28794, 1965-063D
Orbit
LEO
Country
Flag of USUS
Related business
Manufacturer
Unknown
Mission
Spacecraft
Bus & Motor
Unknown
Mass
Unknown
Launch date (UTC)
1965-08-10 (60 years ago)
Launch vehicle
Unknown
Launch site
Wallops Island (WLPIS)
Object type
Payload
Rocket body
Debris
Shape & HBR
Unknown
Radar Cross Section
Small (<0.1 m²)

Expand to show TLE details & history
Last TLE update: 1 year ago

TLE from 1 year ago
0 SCOUT B DEB
1 28794U 65063D   24183.22798148  .00000130  00000-0  11269-2 0  9994
2 28794  69.2245 175.1450 0775329 345.8079  24.3375 11.81174033884500
Epoch: 2024-07-01T05:28Z
TLE epoch observation values (Epoch: 2024-07-01T05:28:17.599Z)
Latitude
13.20007°
Longitude
178.38529°
Altitude
1,201.46 km
Speed
7.502 km/s
True Right ascension
12h 00m 53s
True Declination
13° 07' 42"
Sunlit
Object was in daylight at epoch
Visualization orbit readout
Latitude
Unknown
Longitude
Unknown
Altitude
Unknown
Speed
Unknown
Apparent Right ascension
Unknown
Apparent Declination
Unknown
Sunlit
N/A
Visualization observer readout
Local Sidereal Time
15:01:31
Azimuth
Unknown
Elevation
Unknown
Doppler factor
Unknown
Orbital elements
Apogee altitude
2,395.9 km
Perigee altitude
1,133.245 km
Semi-major axis
8,142.71 km
Eccentricity
0.07753
Inclination
69.2245°
RAAN
175.145°
Arg. of periapsis
345.8079°
True anomaly
28.34873°
Mean anomaly
24.3375°
Eccentric anomaly
26.30619°
Mean motion
2.95386 °/min
Orbital period
121.87 mins
BSTAR
0.0011269
Loading maneuver chart data...
Computing Atmospheric mass density...
Loading historical data...
Loading historical data...
Loading historical data...
Loading historical data...
Loading historical data...
Loading historical data...
Loading historical data...

Documentation

Showing up to 5 results
|